カタログに戻る

HELIOS 1B

運用中軍事SSO
NORAD 25977·PAYLOAD·🇫🇷 France

打ち上げ Dec 3, 1999 から Guiana Space Centre

Loading…

次のパス (今後24時間)

TLE

最新Source: Space-Track

元期: Sep 14, 2026, 04:55 UTC

1 25977U 99064A   26257.20487973  .00000961  00000-0  11052-3 0  9998
2 25977  98.1515 164.8855 0001903 118.7774 241.3633 14.88198979713294

AllMySatでHELIOS 1Bをリアルタイム追跡

Download on the App Store